This demonstration page uses our WeatherBlox Daily Observations layout. Learn more.

Left ArrowRight Arrow

Hourly Observations for April 16, 2021

Temp ( °F °C ) Dew Point ( °F °C ) Humidity (%) Winds ( mph kmh ) Pressure ( in mb ) Visibility ( mi km ) Precip ( " mm )
12:56 am 00:56 Cloudy with Light Rain 37 2.8 31 -0.6 79 79 NNE 10 17 30.15 1021 10 16 0.00 0.00
1:46 am 01:46 Cloudy with Light Rain 37 3 32 0 81 81 N 9 15 30.18 1022 10 16 0.00 0.00
1:56 am 01:56 Cloudy with Light Rain 36 2.2 32 0 86 86 N 12 19 30.14 1021 10 16 0.00 0.00
2:36 am 02:36 Cloudy with Light Snow 34 1 30 -1 87 87 N 8 13 30.20 1023 4 6 0.00 0.00
2:56 am 02:56 Cloudy with Light Snow 33 0.6 32 0 96 96 N 8 13 30.15 1021 4 6 0.02 0.51
3:12 am 03:12 Cloudy with Light Snow 34 1 30 -1 87 87 N 8 13 30.19 1022 4 6 0.00 0.00
3:34 am 03:34 Cloudy with Light Snow 34 1 30 -1 87 87 NNW 6 9 30.19 1022 3 4 0.01 0.25
3:43 am 03:43 Cloudy with Light Snow 32 0 30 -1 93 93 NNW 7 11 30.20 1023 3 5 0.01 0.25
3:49 am 03:49 Cloudy with Light Snow 32 0 30 -1 93 93 NNW 7 11 30.19 1022 3 4 0.02 0.51
3:56 am 03:56 Cloudy with Light Snow 32 0 31 -0.6 96 96 NNW 8 13 30.13 1020 3 4 0.02 0.51
4:22 am 04:22 Cloudy with Light Snow 32 0 30 -1 93 93 NNW 7 11 30.19 1022 3 4 0.02 0.51
4:32 am 04:32 Cloudy with Light Snow 32 0 30 -1 93 93 NNW 6 9 30.20 1023 3 4 0.03 0.76
4:56 am 04:56 Cloudy with Light Snow 32 0 31 -0.6 96 96 NNW 7 11 30.13 1020 3 4 0.04 1.02
5:06 am 05:06 Cloudy with Light Snow 32 0 30 -1 93 93 N 7 11 30.19 1022 2 3 0.00 0.00
5:17 am 05:17 Cloudy with Light Snow 32 0 30 -1 93 93 NNW 6 9 30.19 1022 3 5 0.01 0.25
5:32 am 05:32 Cloudy with Light Snow 32 0 30 -1 93 93 N 8 13 30.19 1022 3 4 0.01 0.25
5:48 am 05:48 Cloudy with Light Snow 32 0 30 -1 93 93 N 9 15 30.18 1022 4 6 0.04 1.02
5:56 am 05:56 Cloudy with Light Wintry Mix 32 0 31 -0.6 96 96 N 8 13 30.13 1020 5 8 0.05 1.27
6:53 am 06:53 Cloudy with Light Snow 32 0 30 -1 93 93 NNW 7 11 30.18 1022 5 8 0.00 0.00
6:56 am 06:56 Cloudy with Light Snow 32 0 31 -0.6 96 96 NNW 6 9 30.12 1020 5 8 0.12 3.05
7:15 am 07:15 Cloudy with Light Snow 32 0 30 -1 93 93 NNW 5 7 30.18 1022 3 4 0.03 0.76
7:56 am 07:56 Cloudy with Light Snow 32 0 31 -0.6 96 96 NNW 7 11 30.11 1020 3 4 0.11 2.79
8:23 am 08:23 Cloudy with Light Snow 34 1 30 -1 87 87 NNW 6 9 30.17 1022 3 5 0.03 0.76
8:56 am 08:56 Cloudy with Light Wintry Mix 33 0.6 32 0 96 96 WNW 7 11 30.13 1020 4 6 0.06 1.52
9:38 am 09:38 Cloudy with Light Wintry Mix 34 1 34 1 100 100 WNW 8 13 30.17 1022 4 6 0.03 0.76
9:56 am 09:56 Cloudy with Light Rain 34 1.1 33 0.6 97 97 NW 7 11 30.12 1020 7 11 0.04 1.02
10:56 am 10:56 Cloudy with Light Rain 35 1.7 34 1.1 96 96 WNW 6 9 30.14 1021 6 10 0.04 1.02
11:56 am 11:56 Cloudy with Light Rain 36 2.2 35 1.7 97 97 NW 8 13 30.14 1021 8 13 0.04 1.02
12:27 pm 12:27 Cloudy with Light Rain 36 2 36 2 100 100 NW 7 11 30.17 1022 7 11 0.01 0.25
12:42 pm 12:42 Cloudy with Light Rain 37 3 36 2 93 93 NW 9 15 30.16 1021 7 11 0.02 0.51
12:56 pm 12:56 Cloudy with Light Rain 36 2.2 36 2.2 100 100 WNW 9 15 30.14 1021 9 14 0.02 0.51
1:05 pm 13:05 Cloudy with Light Rain 37 3 36 2 93 93 WNW 9 15 30.15 1021 6 10 0.00 0.00
1:22 pm 13:22 Cloudy with Light Rain 37 3 36 2 93 93 NW 9 15 30.15 1021 10 16 0.01 0.25
1:56 pm 13:56 Cloudy with Light Rain 37 2.8 36 2.2 96 96 NW 9 15 30.13 1020 10 16 0.02 0.51
2:56 pm 14:56 Cloudy with Light Rain 40 4.4 39 3.9 97 97 N 13 20 30.13 1020 10 16 0.01 0.25
3:56 pm 15:56 Cloudy with Light Rain 40 4.4 39 3.9 97 97 N 13 20 30.12 1020 10 16 0.00 0.00
4:43 pm 16:43 Cloudy with Light Rain 37 3 37 3 100 100 NW 12 19 30.14 1021 10 16 0.00 0.00
4:56 pm 16:56 Cloudy with Light Rain 39 3.9 38 3.3 96 96 WNW 12 19 30.12 1020 10 16 0.02 0.51
5:30 pm 17:30 Cloudy with Light Rain 39 4 37 3 93 93 N 12 19 30.14 1021 10 16 0.03 0.76
5:56 pm 17:56 Cloudy with Light Rain 40 4.4 37 2.8 89 89 N 14 22 30.12 1020 10 16 0.03 0.76
6:56 pm 18:56 Cloudy with Light Rain 40 4.4 37 2.8 89 89 N 16 26 30.13 1020 10 16 0.00 0.00
7:52 pm 19:52 Cloudy with Light Rain 39 4 37 3 93 93 N 16 26 30.15 1021 10 16 0.00 0.00
7:56 pm 19:56 Cloudy with Light Rain 39 3.9 37 2.8 93 93 N 16 26 30.14 1021 10 16 0.00 0.00
8:12 pm 20:12 Cloudy with Light Rain 39 4 36 2 87 87 N 16 26 30.16 1021 10 16 0.00 0.00
8:18 pm 20:18 Cloudy with Light Rain 39 4 36 2 87 87 N 15 24 30.16 1021 10 16 0.00 0.00
8:51 pm 20:51 Cloudy with Light Rain 39 4 37 3 93 93 N 15 24 30.17 1022 10 16 0.00 0.00
8:56 pm 20:56 Cloudy with Light Rain 39 3.9 37 2.8 93 93 N 14 22 30.16 1021 10 16 0.00 0.00
9:14 pm 21:14 Mostly Cloudy with Light Rain 37 3 36 2 93 93 N 14 22 30.18 1022 10 16 0.00 0.00
9:56 pm 21:56 Cloudy with Light Rain 38 3.3 36 2.2 93 93 N 12 19 30.18 1022 10 16 0.00 0.00
10:10 pm 22:10 Cloudy with Light Rain 37 3 37 3 100 100 NNW 8 13 30.20 1023 10 16 0.00 0.00
10:30 pm 22:30 Cloudy with Light Rain 37 3 37 3 100 100 NNW 9 15 30.20 1023 10 16 0.00 0.00
10:56 pm 22:56 Cloudy with Light Rain 38 3.3 37 2.8 97 97 N 9 15 30.18 1022 10 16 0.00 0.00
11:03 pm 23:03 Cloudy with Light Rain 37 3 37 3 100 100 N 7 11 30.20 1023 10 16 0.00 0.00
11:21 pm 23:21 Cloudy with Light Rain 39 4 37 3 93 93 N 10 17 30.20 1023 10 16 0.00 0.00
11:40 pm 23:40 Cloudy with Light Rain 39 4 37 3 93 93 NNW 9 15 30.20 1023 10 16 0.00 0.00
11:56 pm 23:56 Cloudy with Light Rain 39 3.9 37 2.8 93 93 NNW 7 11 30.18 1022 10 16 0.00 0.00

Powered by AerisWeather